Location: Unspecified
(38.6830°S, 0.0000°E)
Time: 20:37:21
(UTC+00:00)

ISS - Visible Passes

Search period start: 19 May 2019 00:00
Search period end: 29 May 2019 00:00
Orbit: 407 x 410 km, 51.6° (Epoch: 20 May)

Date Brightness Start Highest point End Pass type
(mag) Time Alt. Az. Time Alt. Az. Time Alt. Az.
22 May -0.4 05:53:57 10° NNE 05:55:27 13° NE 05:56:58 10° E visible
24 May -1.9 05:46:50 10° NNW 05:49:52 33° NE 05:52:56 10° ESE visible
25 May -0.9 04:57:05 11° N 04:59:05 17° NE 05:01:24 10° E visible
26 May -3.9 05:42:24 22° NW 05:44:24 87° SW 05:47:48 10° SE visible
27 May -2.1 04:54:29 34° E 04:54:29 34° E 04:56:44 10° ESE visible
27 May -2.4 06:27:27 10° W 06:30:13 23° SSW 06:32:59 10° SSE visible
28 May -3.1 05:39:02 35° SSW 05:39:05 35° SSW 05:42:14 10° SE visible
